Weather History for Easton, MD

Change the Weather History Date:

Monday, August 19, 2013

  Actual Average Record
Temperature  
Mean Temperature 68 °F -  
Max Temperature 75 °F 85 °F 94 °F (1954)
Min Temperature 62 °F 66 °F 52 °F (1961)
Cooling Degree Days 4    
Growing Degree Days 18 (Base 50)    
Moisture  
Dew Point 65 °F    
Average Humidity 95    
Maximum Humidity 100    
Minimum Humidity 73    
Precipitation  
Precipitation 0.00 in - - ()
Sea Level Pressure  
Sea Level Pressure 30.18 in    
Wind  
Wind Speed 1 mph (SSW)    
Max Wind Speed 9 mph    
Max Gust Speed -    
Visibility 9 miles    
Events      
Averages and records for this station are not official NWS values.
T = Trace of Precipitation, MM = Missing Value Source: NWS Daily Summary

Daily Weather History Graph

Daily Weather History Graph

Search for Another Location

Airport:

Trip Planner

Search our weather history database for the weather conditions in past years. The results will help you decide how hot, cold, wet, or windy it might be!

Date:

Astronomy

Aug. 19, 2013 Rise Set
Actual Time 6:21 AM EDT 7:53 PM EDT
Civil Twilight 5:53 AM EDT 8:21 PM EDT
Nautical Twilight 5:19 AM EDT 8:54 PM EDT
Astronomical Twilight 4:44 AM EDT 9:30 PM EDT
Moon 6:42 PM EDT (8/19) 4:38 AM EDT (8/19)
Length of Visible Light 14h 27m
Length of Day
13h 31m
Waxing Gibbous, 97% of the Moon is Illuminated
Aug 19
Waxing Gibbous
Aug 20
Full
Aug 28
Last Quarter
Sep 5
New
Sep 12
First Quarter

Hourly Weather History & Observations

Time (EDT) Temp. Dew Point Humidity Pressure Visibility Wind Dir Wind Speed Gust Speed Precip Events Conditions
12:09 AM 63.1 °F 63.1 °F 100% 30.22 in 10.0 mi Calm Calm - N/A   Mostly Cloudy
12:29 AM 62.8 °F 62.8 °F 100% 30.22 in 10.0 mi Calm Calm - N/A   Mostly Cloudy
12:49 AM 62.6 °F 62.6 °F 100% 30.21 in 10.0 mi Calm Calm - N/A   Scattered Clouds
1:09 AM 62.6 °F 62.6 °F 100% 30.21 in 10.0 mi Calm Calm - N/A   Clear
1:29 AM 62.6 °F 62.6 °F 100% 30.21 in 10.0 mi Calm Calm - N/A   Clear
1:49 AM 62.6 °F 62.6 °F 100% 30.20 in 10.0 mi Calm Calm - N/A   Clear
2:09 AM 62.2 °F 62.2 °F 100% 30.21 in 10.0 mi Calm Calm - N/A   Clear
2:29 AM 62.1 °F 62.1 °F 100% 30.20 in 4.0 mi Calm Calm - N/A   Clear
2:49 AM 62.4 °F 62.4 °F 100% 30.20 in 7.0 mi Calm Calm - N/A   Clear
3:09 AM 62.6 °F 62.6 °F 100% 30.19 in 10.0 mi Calm Calm - N/A   Clear
3:29 AM 62.8 °F 62.8 °F 100% 30.19 in 10.0 mi Calm Calm - N/A   Clear
3:49 AM 63.5 °F 63.5 °F 100% 30.19 in 10.0 mi Calm Calm - N/A   Clear
4:09 AM 63.1 °F 63.1 °F 100% 30.19 in 10.0 mi Calm Calm - N/A   Clear
4:29 AM 63.1 °F 63.1 °F 100% 30.19 in 10.0 mi Calm Calm - N/A   Clear
4:49 AM 63.0 °F 63.0 °F 100% 30.18 in 10.0 mi Calm Calm - N/A   Clear
5:09 AM 63.0 °F 63.0 °F 100% 30.19 in 10.0 mi Calm Calm - N/A   Clear
5:29 AM 63.0 °F 63.0 °F 100% 30.19 in 10.0 mi Calm Calm - N/A   Clear
5:49 AM 63.5 °F 63.5 °F 100% 30.19 in 10.0 mi Calm Calm - N/A   Clear
5:50 AM 62.6 °F 62.6 °F 100% 30.19 in 10.0 mi Calm Calm - N/A   Overcast
6:09 AM 63.7 °F 63.7 °F 100% 30.19 in 10.0 mi Calm Calm - N/A   Clear
6:29 AM 63.1 °F 63.1 °F 100% 30.18 in 7.0 mi Calm Calm - N/A   Clear
6:50 AM 63.5 °F 63.5 °F 100% 30.20 in 7.0 mi Calm Calm - N/A   Scattered Clouds
6:55 AM 64.4 °F 64.4 °F 100% 30.20 in 10.0 mi SSE 3.5 mph - N/A   Overcast
7:10 AM 64.0 °F 64.0 °F 100% 30.19 in 7.0 mi Calm Calm - N/A   Mostly Cloudy
7:30 AM 64.8 °F 64.8 °F 100% 30.20 in 7.0 mi Calm Calm - N/A   Overcast
7:43 AM 65.7 °F 65.7 °F 100% 30.19 in 7.0 mi Calm Calm - N/A   Overcast
7:55 AM 66.2 °F 66.2 °F 100% 30.20 in 10.0 mi NE 5.8 mph - N/A   Overcast
8:50 AM 69.8 °F 68.0 °F 94% 30.19 in 10.0 mi NE 5.8 mph - N/A   Mostly Cloudy
9:50 AM 71.6 °F 66.2 °F 83% 30.20 in 10.0 mi SSE 4.6 mph - N/A   Overcast
10:17 AM 71.6 °F 66.2 °F 83% 30.20 in 10.0 mi NE 4.6 mph - N/A   Overcast
10:50 AM 71.6 °F 66.2 °F 83% 30.18 in 10.0 mi NE 5.8 mph - N/A   Overcast
11:50 AM 72.7 °F 66.7 °F 82% 30.17 in 10.0 mi Calm Calm - N/A   Scattered Clouds
11:56 AM 71.6 °F 66.2 °F 83% 30.17 in 10.0 mi South 4.6 mph - N/A   Overcast
12:10 PM 72.1 °F 66.9 °F 84% 30.17 in 10.0 mi Calm Calm - N/A   Scattered Clouds
12:16 PM 72.5 °F 67.3 °F 84% 30.17 in 10.0 mi Calm Calm - N/A   Scattered Clouds
12:55 PM 75.2 °F 66.2 °F 73% 30.16 in 10.0 mi SSW 5.8 mph - N/A   Overcast
2:50 PM 73.4 °F 68.0 °F 83% 30.16 in 10.0 mi SW 9.2 mph - N/A   Overcast
3:50 PM 73.4 °F 68.0 °F 83% 30.13 in 10.0 mi SW 6.9 mph - N/A   Overcast
4:53 PM 73.4 °F 68.0 °F 83% 30.13 in 10.0 mi WSW 5.8 mph - N/A   Overcast
5:53 PM 71.6 °F 68.0 °F 88% 30.14 in 10.0 mi SW 5.8 mph - N/A   Overcast
6:53 PM 71.6 °F 68.0 °F 88% 30.13 in 10.0 mi WSW 5.8 mph - N/A   Overcast
7:53 PM 71.6 °F 68.0 °F 88% 30.13 in 10.0 mi SSW 3.5 mph - N/A   Mostly Cloudy
8:53 PM 68.0 °F 68.0 °F 100% 30.13 in 10.0 mi South 3.5 mph - N/A   Mostly Cloudy
10:51 PM 66.7 °F 66.7 °F 100% 30.15 in 10.0 mi Calm Calm - N/A   Mostly Cloudy
11:11 PM 67.1 °F 67.1 °F 100% 30.15 in 10.0 mi Calm Calm - N/A   Scattered Clouds
11:31 PM 66.4 °F 66.4 °F 100% 30.15 in 10.0 mi Calm Calm - N/A   Scattered Clouds
11:51 PM 66.2 °F 66.2 °F 100% 30.15 in 5.0 mi Calm Calm - N/A   Scattered Clouds